www.pogodaiklimat.ru

Погода и климат >> Архив погоды >> Бангладеш >> Рангпур


ПОГОДА в Рангпуре

  • Прогноз погоды в Рангпуре
  • Монитор погоды в Рангпуре

АРХИВ ПОГОДЫ в Рангпуре

Время (UTC), дата Ветер
(напр.,м/с)
 
Видим.   Явления Облачность Т
(С)
Тd
(С)
f
(%)
Тe
(С)
Тes
(С)
Комфортность P
(гПа)
Po
(гПа)
Тmin
(С)
Tmax
(С)
R
(мм)
R24
(мм)
S
(см)
00 12.07 ЮВ 1 3500 м 10/6 300 м
[St As op]
+26.2 +25.0 93 +37 +37 очень
душно
1001.7 998.0
03 12.07 Ю 1 4500 м 10/6 240 м
[St As op]
+27.2 +25.0 88 +39 +40 очень
душно
1002.9 999.2 +25.3
06 12.07 ЮВ 1 5000 м 10/6 300 м
[St As op]
+30.5 +28.0 87 +51 +53 опасность
перегрева
1003.1 999.4
09 12.07 С 1 5000 м {дождь} 10/6 300 м
[St As op]
+30.6 +27.0 81 +48 +49 опасность
перегрева
1001.1 997.4 9
12 12.07 ЮЗ 1 5000 м {дождь} 6/3 540 м
[Sc Ac trans]
+31.0 +27.0 79 +48 +49 опасность
перегрева
1000.9 997.3 +31.6 9
15 12.07 ЮЗ 1 3000 м 10/6 300 м
[St As op]
+29.4 +27.0 87 +46 +46 опасность
перегрева
1002.7 999.0
18 12.07 штиль 0 3000 м 10/6 300 м
[St As op]
+27.4 +25.0 87 +39 +39 очень
душно
1002.8 999.1
21 12.07 ЮВ 1 3000 м 10/5 300 м
[St As op]
+26.4 +25.0 92 +38 +38 очень
душно
1002.5 998.8
00 13.07 штиль 0 4000 м 10/6 300 м
[St As op]
+26.8 +26.0 95 +40 +40 очень
душно
1001.5 997.8
03 13.07 штиль 0 5000 м слаб. дождь 10/6 240 м
[Frnb As op]
+27.1 +25.0 88 +39 +40 очень
душно
1003.2 999.5 +26.4 2
06 13.07 штиль 0 5000 м {дождь} 10/6 300 м
[St As op]
+28.6 +26.0 86 +43 +45 опасность
перегрева
1002.7 999.0 2
09 13.07 штиль 0 5000 м 10/6 300 м
[St As op]
+31.5 +26.0 73 +47 +49 опасность
перегрева
1000.3 996.7
12 13.07 штиль 0 5000 м 10/6 300 м
[St As op]
+30.3 +26.0 78 +46 +46 опасность
перегрева
999.4 995.7 +32.0
15 13.07 ЮВ 1 3000 м 10/6 300 м
[St As op]
+28.6 +27.0 91 +45 +45 опасность
перегрева
1000.1 996.5
18 13.07 ЮЗ 2 3000 м слаб. дождь 10/8 240 м
[Frnb As op]
+27.0 +25.0 89 +39 +39 очень
душно
1000.3 996.6 0.8
00 14.07 Ю 2 3000 м дождь {гроза} 10/8 240 м
[Frnb As op]
+25.5 +25.0 97 +36 +36 очень
душно
998.9 995.2 40
03 14.07 Ю 1 4000 м слаб. дождь 10/8 240 м
[Frnb As op]
+26.1 +24.0 88 +36 +37 очень
душно
1000.5 996.8 +25.0 2
06 14.07 Ю 1 5000 м {дождь} 10/8 240 м
[St As op]
+29.3 +26.0 82 +44 +45 опасность
перегрева
999.9 996.2
09 14.07 ЮЗ 1 5000 м 10/6 300 м
[St As op]
+30.0 +26.0 79 +45 +46 опасность
перегрева
998.8 995.2
12 14.07 ЮЗ 1 5000 м 10/6 300 м
[St As op]
+30.4 +26.0 77 +45 +46 опасность
перегрева
997.8 994.2 +31.0
15 14.07 ЮЗ 2 3000 м {дождь} 10/6 300 м
[St As op]
+28.2 +27.0 93 +44 +44 опасность
перегрева
998.5 994.8 2
18 14.07 ЮЗ 1 3000 м гроза, ливневой дождь 10/8 270 м
[Cb cap As op]
+25.0 +23.0 89 +33 +33 очень
душно
998.0 994.3 5
21 14.07 ЮЗ 2 3000 м гроза, ливневой дождь 10/8 270 м
[Cb cap As op]
+24.4 +23.0 92 +32 +32 очень
душно
997.7 994.0 20
00 15.07 штиль 0 4000 м слаб. дождь {гроза} 10/8 270 м
[Frnb As op]
+24.8 +24.0 95 +34 +34 очень
душно
998.2 994.5 27
03 15.07 штиль 0 4000 м гроза, ливневой дождь 10/8 270 м
[Cb cap As op]
+25.6 +25.0 96 +36 +37 очень
душно
1001.1 997.3 +24.0 15
06 15.07 штиль 0 5000 м {дождь} 10/5 270 м
[St As op]
+28.1 +26.0 88 +42 +45 опасность
перегрева
1000.2 996.5 18
09 15.07 ЮЗ 1 5000 м 10/6 300 м
[St As op]
+30.4 +26.0 77 +45 +47 опасность
перегрева
999.7 996.0
12 15.07 ЮЗ 2 5000 м 10/6 300 м
[St As op]
+27.8 +26.0 90 +42 +42 опасность
перегрева
999.0 995.3 +30.6
15 15.07 Ю 2 3000 м 10/6 300 м
[St As op]
+27.0 +25.0 89 +39 +39 очень
душно
1000.0 996.3
18 15.07 Ю 2 3000 м 10/6 300 м
[St As op]
+26.4 +24.0 87 +37 +37 очень
душно
1001.3 997.6
21 15.07 ЮВ 1 3000 м 10/6 300 м
[St As op]
+25.9 +25.0 95 +37 +37 очень
душно
1000.9 997.2
00 16.07 СВ 1 4000 м 10/6 300 м
[St As op]
+25.6 +25.0 96 +36 +36 очень
душно
1000.9 997.2
03 16.07 штиль 0 5000 м 10/6 300 м
[St As op]
+29.1 +25.0 79 +42 +43 опасность
перегрева
1003.5 999.8 +24.7
06 16.07 В 2 6000 м 6/4 540 м
[Sc As trans]
+31.9 +25.0 67 +45 +57 опасность
перегрева
1003.5 999.8
09 16.07 штиль 0 5000 м 9/5 540 м
[Sc diur, vesp Ac As]
+32.0 +27.0 75 +50 +54 опасность
перегрева
1002.8 999.1
12 16.07 штиль 0 5000 м 4/4 540 м
[Sc Ac trans]
+31.5 +27.0 77 +49 +50 опасность
перегрева
1000.0 996.4 +32.5
15 16.07 штиль 0 3000 м 5/3 540 м
[Sc Ac trans]
+28.6 +27.0 91 +45 +45 опасность
перегрева
1002.2 998.5
18 16.07 ЮЗ 1 3000 м 10/6 300 м
[St As op]
+28.1 +27.0 94 +44 +44 опасность
перегрева
1002.4 998.7
21 16.07 штиль 0 3000 м 10/6 300 м
[St As op]
+27.4 +26.0 92 +41 +41 опасность
перегрева
1002.2 998.4
00 17.07 штиль 0 4000 м 10/6 300 м
[St As op]
+27.1 +26.0 94 +41 +41 опасность
перегрева
1001.9 998.1
06 17.07 В 1 5000 м 9/5 300 м
[St As op]
+33.6 +26.0 65 +50 +55 опасность
перегрева
1002.6 999.0
09 18.07 штиль 0 4000 м гроза без осадков 10/6 240 м
[Cb calv As op]
+31.1 +26.0 74 +46 +48 опасность
перегрева
1000.9 997.3 10
12 18.07 штиль 0 5000 м {гроза, дождь} 10/6 300 м
[St As op]
+30.6 +26.0 77 +46 +46 опасность
перегрева
999.2 995.5 +34.6 10
15 18.07 штиль 0 3000 м 8/5 540 м
[Sc diur, vesp Ac As]
+29.0 +28.0 94 +48 +48 опасность
перегрева
1003.2 999.5
18 18.07 штиль 0 3000 м 3/3 540 м
[Sc]
+28.8 +28.0 95 +47 +47 опасность
перегрева
1003.2 999.5

 

Местоположение метеостанции Рангпур (Бангладеш): широта 25.73 долгота 89.23 высота над уровнем моря 34 м.

В архиве по умолчанию представлена погода в Рангпуре за последнюю неделю. Архивные данные за месяц целиком и за предыдущие месяцы, начиная с января 2011 года, Вы можете получить, выбрав интересующий диапазон дат из раскрывающегося списка и нажав кнопку "Ввод!".


*Определитесь, кто Вы:
робот инопланетянин человек

Внимание! Время в таблицах - всемирное. Для получения местного времени необходимо прибавить поправку, которая равна 6.5 ч.

Смотрите также архив погоды в соседних городах и на ближайших метеорологических станциях:

Погода в Саидпуре (Бангладеш) (31 км)
Погода в Раджархэте (Бангладеш) (33 км)
Погода в Динаджпуре (Бангладеш) (56 км)
Погода в Куч-Бихар (Западная Бенгалия, Индия) (71 км)
Погода в Балургхате (Западная Бенгалия, Индия) (73 км)
Погода в Димле (Бангладеш) (79 км)
Погода в Дхубри (Ассам, Индия) (82 км)
Погода в Тетулии (Бангладеш) (92 км)
Погода в Богре (Бангладеш) (99 км)
Погода в Джалпайгури (Западная Бенгалия, Индия) (103 км)

Пояснения к столбцам:

Ветер - указаны скорость ветра в м/с - средняя за 10 мин, порывы в срок и между сроками (в фигурных скобках) и направление, откуда дует ветер: С - северный, СВ - северо-восточный, В - восточный, ЮВ - юго-восточный, Ю - южный, ЮЗ - юго-западный, З - западный, СЗ - северо-западный.
Видимость - горизонтальная дальность видимости в метрах или километрах. При видимости от 1 до 10 км при отсутствии осадков обычно наблюдается дымка, при ухудшении видимости до 1 км и менее - туман. В сухую погоду видимость может ухудшаться дымом, пылью или мглою.
Явления - указаны атмосферные явления, наблюдавшиеся в срок или в последний час перед сроком; фигурными скобками обозначены явления, наблюдавшиеся между сроками (за 1-3 часа до срока); квадратными скобками обозначены град или гололедные отложения с указанием их диаметра в мм.
Облачность - указаны через наклонную черту общая и нижняя облачность в баллах и высота нижней границы облаков в метрах; квадратными скобками обозначены формы облаков: Ci - перистые, Cs - перисто-слоистые, Cc - перисто-кучевые, Ac - высококучевые, As - высокослоистые, Sc - слоисто-кучевые, Ns - слоисто-дождевые, Cu - кучевые, Cb - кучево-дождевые. Подробнее классификацию облаков см. в Атласе облаков (PDF).
T - Температура воздуха - температура, измеренная на высоте 2 м над землей.
Td - Температура точки росы - температура, при понижении до которой содержащийся в воздухе водяной пар достигнет насыщения.
f - Относительная влажность воздуха - влажноcть воздуха, измеренная на высоте 2 м над землей.
Te - Эффективная температура - температура, которую ощущает одетый по сезону человек в тени. Характеристика душности погоды. При расчете учитывается влияние влажности воздуха и скорости ветра на теплоощущения человека.
Tes - Эффективная температура на солнце - температура, которую ощущает человек, с поправкой на солнечный нагрев. Характеристика знойности погоды. Зависит от высоты солнца над горизонтом, облачности и скорости ветра. Ночью, в пасмурную погоду, а также при ветре 12 м/с и более поправка равна нулю.
P - Атмосферное давление - приведенное к уровню моря атмосферное давление.
Po - Атмосферное давление - измеренное на уровне метеостанции атмосферное давление.
Tmin - Минимальная температура - минимум температуры воздуха на высоте 2 м над землей.
Tmax - Максимальная температура - максимум температуры воздуха на высоте 2 м над землей.
R - Количество осадков - Количество выпавших осадков за период времени, мм. При наведении курсора мыши на число - период времени, за который выпало указанное количество осадков.
R24 - Количество осадков - Количество выпавших осадков за 24 часа, мм.
S - Снежный покров - Высота снежного покрова, см. При наведении курсора мыши на число - состояние снежного покрова и степень покрытия местности в баллах.